Change the Weather History Date:

Thursday, October 4, 2012

  Actual Average Record
Temperature  
Mean Temperature 46 °F -  
Max Temperature 52 °F 44 °F 62 °F (2005)
Min Temperature 41 °F 33 °F 32 °F (1998)
Degree Days  
Heating Degree Days 18    
Moisture  
Dew Point 43 °F    
Average Humidity 90    
Maximum Humidity 100    
Minimum Humidity 61    
Precipitation  
Precipitation 0.00 in 0.13 in - ()
Sea Level Pressure  
Sea Level Pressure 29.48 in    
Wind  
Wind Speed 7 mph ()    
Max Wind Speed 12 mph    
Max Gust Speed -    
Visibility 6.9 miles    
Events      
Averages and records for this station are not official NWS values.
T = Trace of Precipitation, MM = Missing Value Source: Averaged Metar Reports

Daily Weather History Graph

Daily Weather History Graph

Search for Another Location

Airport or City:

Trip Planner

Search our weather history database for the weather conditions in past years. The results will help you decide how hot, cold, wet, or windy it might be!

Date:

Astronomy

Oct. 04, 2012 Rise Set
Actual Time 7:29 AM CEST 6:38 PM CEST
Civil Twilight 6:47 AM CEST 7:19 PM CEST
Nautical Twilight 5:58 AM CEST 8:08 PM CEST
Astronomical Twilight 5:07 AM CEST 8:58 PM CEST
Moon 7:46 PM CEST 12:45 PM CEST
Length of Visible Light 12h 32m
Length of Day
11h 08m
Waning Gibbous, 84% of the Moon is Illuminated
Oct 4
Waning Gibbous
Oct 8
Last Quarter
Oct 15
New
Oct 22
First Quarter
Oct 29
Full

Hourly Weather History & Observations

Time (CEST) Temp. Windchill Dew Point Humidity Pressure Visibility Wind Dir Wind Speed Gust Speed Precip Events Conditions
12:10 AM 46.4 °F 42.4 °F 46.4 °F 100% 29.47 in 6.2 mi SSE 8.1 mph - N/A   Mostly Cloudy
12:41 AM 46.4 °F 42.9 °F 46.4 °F 100% 29.47 in 6.2 mi SSE 6.9 mph - N/A   Mostly Cloudy
1:12 AM 46.4 °F 42.4 °F 44.6 °F 93% 29.47 in 6.2 mi SSE 8.1 mph - N/A   Mostly Cloudy
1:40 AM 46.4 °F 42.4 °F 44.6 °F 93% 29.47 in 6.2 mi South 8.1 mph - N/A   Mostly Cloudy
2:00 AM 46 °F - 45 °F 96%  in 9 mi SSE 6.7 mph - -   Partly Cloudy
2:12 AM 46.4 °F 41.9 °F 44.6 °F 93% 29.47 in 6.2 mi SSE 9.2 mph - N/A   Mostly Cloudy
2:41 AM 46.4 °F 41.1 °F 44.6 °F 93% 29.47 in 6.2 mi SSE 11.5 mph - N/A   Mostly Cloudy
3:10 AM 44.6 °F 38.8 °F 44.6 °F 100% 29.47 in 6.2 mi South 11.5 mph - N/A   Mostly Cloudy
3:46 AM 44.6 °F 39.7 °F 44.6 °F 100% 29.47 in 6.2 mi South 9.2 mph - N/A   Mostly Cloudy
4:13 AM 44.6 °F 39.2 °F 44.6 °F 100% 29.47 in 6.2 mi South 10.4 mph - N/A   Mostly Cloudy
5:02 AM 44.6 °F 39.7 °F 44.6 °F 100% 29.47 in 6.2 mi South 9.2 mph - N/A   Mostly Cloudy
5:11 AM 44.6 °F 39.7 °F 42.8 °F 93% 29.47 in 6.2 mi South 9.2 mph - N/A   Mostly Cloudy
5:40 AM 44.6 °F 39.7 °F 42.8 °F 93% 29.47 in 6.2 mi South 9.2 mph - N/A   Mostly Cloudy
6:10 AM 44.6 °F 39.7 °F 44.6 °F 100% 29.47 in 6.2 mi South 9.2 mph - N/A   Mostly Cloudy
6:42 AM 44.6 °F 39.7 °F 42.8 °F 93% 29.47 in 6.2 mi South 9.2 mph - N/A   Mostly Cloudy
7:11 AM 44.6 °F 40.2 °F 42.8 °F 93% 29.47 in 6.2 mi South 8.1 mph - N/A   Mostly Cloudy
7:41 AM 44.6 °F 40.7 °F 42.8 °F 93% 29.44 in 6.2 mi SSW 6.9 mph - N/A   Mostly Cloudy
8:00 AM 44 °F - 43 °F 96%  in 16 mi SSW 6.7 mph - -   Partly Cloudy
8:13 AM 42.8 °F 37.5 °F 42.8 °F 100% 29.47 in 6.2 mi South 9.2 mph - N/A   Mostly Cloudy
8:41 AM 44.6 °F 39.7 °F 42.8 °F 93% 29.47 in 6.2 mi South 9.2 mph - N/A   Mostly Cloudy
9:16 AM 44.6 °F 39.7 °F 42.8 °F 93% 29.47 in 6.2 mi South 9.2 mph - N/A   Mostly Cloudy
9:42 AM 44.6 °F 41.4 °F 42.8 °F 93% 29.47 in 6.2 mi South 5.8 mph - N/A   Mostly Cloudy
10:11 AM 46.4 °F 42.4 °F 44.6 °F 93% 29.47 in 6.2 mi South 8.1 mph - N/A   Mostly Cloudy
10:41 AM 46.4 °F 41.9 °F 44.6 °F 93% 29.47 in 6.2 mi South 9.2 mph - N/A   Mostly Cloudy
11:11 AM 46.4 °F 42.4 °F 44.6 °F 93% 29.47 in 6.2 mi South 8.1 mph - N/A   Overcast
11:43 AM 48.2 °F - 44.6 °F 87% 29.47 in 6.2 mi South 6.9 mph - N/A   Mostly Cloudy
12:10 PM 48.2 °F - 44.6 °F 87% 29.47 in 6.2 mi SSW 5.8 mph - N/A   Mostly Cloudy
12:40 PM 50.0 °F - 42.8 °F 76% 29.47 in 6.2 mi SSW 8.1 mph - N/A   Mostly Cloudy
1:12 PM 51.8 °F - 42.8 °F 71% 29.47 in 6.2 mi SSW 8.1 mph - N/A   Mostly Cloudy
1:43 PM 51.8 °F - 42.8 °F 71% 29.47 in 6.2 mi SSW 8.1 mph - N/A   Mostly Cloudy
2:00 PM 52 °F - 43 °F 61%  in 19 mi SSW 4.5 mph - -   Mostly Cloudy
2:13 PM 51.8 °F - 42.8 °F 71% 29.47 in 6.2 mi SSW 9.2 mph - N/A   Mostly Cloudy
2:42 PM 50.0 °F - 42.8 °F 76% 29.47 in 6.2 mi SW 9.2 mph - N/A   Mostly Cloudy
3:13 PM 50.0 °F - 44.6 °F 82% 29.47 in 6.2 mi SSE 8.1 mph - N/A   Mostly Cloudy
3:44 PM 50.0 °F - 44.6 °F 82% 29.47 in 6.2 mi South 8.1 mph - N/A   Mostly Cloudy
4:11 PM 50.0 °F - 42.8 °F 76% 29.47 in 6.2 mi South 8.1 mph - N/A   Mostly Cloudy
4:43 PM 50.0 °F - 42.8 °F 76% 29.47 in 6.2 mi South 8.1 mph - N/A   Mostly Cloudy
5:22 PM 48.2 °F - 42.8 °F 82% 29.47 in 6.2 mi South 10.4 mph - N/A   Mostly Cloudy
5:45 PM 48.2 °F - 42.8 °F 82% 29.47 in 6.2 mi SSE 9.2 mph - N/A   Mostly Cloudy
6:11 PM 46.4 °F 42.4 °F 42.8 °F 87% 29.47 in 6.2 mi South 8.1 mph - N/A   Mostly Cloudy
6:41 PM 46.4 °F 41.9 °F 42.8 °F 87% 29.47 in 6.2 mi SSE 9.2 mph - N/A   Mostly Cloudy
7:11 PM 44.6 °F 41.4 °F 41.0 °F 87% 29.47 in 6.2 mi South 5.8 mph - N/A   Mostly Cloudy
7:40 PM 44.6 °F 43.1 °F 41.0 °F 87% 29.50 in - SSE 3.5 mph - N/A   Clear
8:00 PM 43 °F - 41 °F 91%  in 19 mi South 4.5 mph - -   Partly Cloudy
8:10 PM 42.8 °F - 41.0 °F 93% 29.50 in 6.2 mi Calm Calm - N/A   Partly Cloudy
8:41 PM 42.8 °F 41.1 °F 41.0 °F 93% 29.50 in 6.2 mi South 3.5 mph - N/A   Partly Cloudy
9:12 PM 42.8 °F 40.1 °F 41.0 °F 93% 29.50 in - SSE 4.6 mph - N/A   Clear
9:41 PM 41.0 °F - 39.2 °F 93% 29.50 in 6.2 mi Variable 2.3 mph - N/A   Partly Cloudy
10:14 PM 42.8 °F - 41.0 °F 93% 29.50 in 6.2 mi Calm Calm - N/A   Scattered Clouds
10:43 PM 42.8 °F 40.1 °F 42.8 °F 100% 29.50 in 6.2 mi SSE 4.6 mph - N/A   Mostly Cloudy
11:19 PM 42.8 °F - 41.0 °F 93% 29.50 in 6.2 mi SSW 2.3 mph - N/A   Mostly Cloudy
11:48 PM 41.0 °F 39.0 °F 41.0 °F 100% 29.53 in 4.3 mi NW 3.5 mph - N/A   Mostly Cloudy